Regional Weather Roundup
Issued by NWS

Home | Current Version | Previous Version | Graphics & Text | Print | Product List | Glossary On
Versions: 1 2 3 4 5 6 7 8 9 10 11 12 13 14 15 16 17 18 19 20 21 22 23 24 25 26 27 28 29 30 31 32 33 34 35 36 37 38 39 40 41 42 43 44 45 46 47 48 49 50
000
ASUS43 KLMK 191902
RWRKY
KENTUCKY REGIONAL WEATHER ROUNDUP
NATIONAL WEATHER SERVICE LOUISVILLE KY
300 PM EDT WED JUL 19 2017

NOTE "FAIR" INDICATES FEW OR NO CLOUDS BELOW 12,000 FEET
WITH NO SIGNIFICANT WEATHER AND/OR OBSTRUCTIONS TO VISIBILITY.

KYZ001>023-026-027-061>063-070>075-192000-
WESTERN AND SOUTH CENTRAL KENTUCKY

CITY           SKY/WX    TMP DP  RH WIND       PRES   REMARKS
PADUCAH        MOSUNNY   93  72  50 W8        30.11F HX 101
HENDERSON      SUNNY     91  67  44 VRB6      30.11  HX  94
OWENSBORO      PTSUNNY   85  69  58 NE9       30.12F
HOPKINSVILLE   SUNNY     90  75  60 NW8       30.12F HX 100
BOWLING GREEN  CLOUDY    92  72  51 NW6       30.12F HX  99
GLASGOW        NOT AVBL
$$

KYZ024-025-028>034-038-045-046-053-192000-
NORTH CENTRAL KENTUCKY

CITY           SKY/WX    TMP DP  RH WIND       PRES   REMARKS
LOUISVILLE/SDF PTSUNNY   93  63  36 N8        30.10F HX  94
LOUISVILLE/LOU MOSUNNY   91  64  40 NE7       30.11F HX  92
FORT KNOX      PTSUNNY   90  68  48 W9        30.11F HX  93
$$

KYZ035>037-039>044-047>052-055>060-089>105-192000-
NORTHEAST KENTUCKY

CITY           SKY/WX    TMP DP  RH WIND       PRES   REMARKS
LEXINGTON      MOSUNNY   87  62  43 W8        30.14F
COVINGTON      MOSUNNY   87  68  52 CALM      30.12F HX  90
FRANKFORT      MOSUNNY   87  65  47 VRB5      30.12F
$$

KYZ054-064>069-076>088-106>120-192000-
SOUTHEAST KENTUCKY

CITY           SKY/WX    TMP DP  RH WIND       PRES   REMARKS
JACKSON        MOSUNNY   88  69  53 CALM      30.14F HX  92
LONDON         PTSUNNY   88  66  48 W6        30.14F HX  90
SOMERSET       SUNNY     88  59  37 W3        30.14F
MIDDLESBORO    MOSUNNY   89  67  48 CALM      30.14F HX  92
MONTICELLO     CLEAR     88  71  57 W12       30.16F HX  94
$$





USA.gov is the U.S. government's official web portal to all federal, state and local government web resources and services.